TITAN 3C TRANSTAGE R/B, 9855

Orbit data source: Space-Track

TITAN 3C TRANSTAGE R/B, 9855 is space debris in GEO originally from a launch on Sun, 06 Feb 1977 UTC launched from the Air Force Eastern Test Range (AFETR). Debris objects in space refer to the collection of defunct objects orbiting the Earth. Examples of debris include non-operational satellites, rocket bodies, and fragments generated from explosions, collisions, or faulty payload assembly.

Loading next visibility...
TITAN 3C TRANSTAGE R/B details
Identifier
9855, 1977-007C
Orbit
GEO
Last TLE update2 days ago
Origin
Flag of USSAMSO (US)
ManufacturerMartin Marietta
MissionSpacecraft
Bus & MotorTRANSTAGE, Unknown motor
Mass~1,950 kg wet, ~1,950 kg dry
Launch date (UTC)
1977-02-06 (48 years ago)
Launch vehicleUnknown
Launch site
Air Force Eastern Test Range (AFETR)
Object type
Payload
Rocket body
Debris
Shape & HBRCyl + 2 Nozzle, 4.6 m
Radar Cross Section14.974 m²

Expand to show TLE details & history

TLE from 2 days ago
0 TITAN 3C TRANSTAGE R/B
1 09855U 77007C   24359.72739617 -.00000199  00000-0  00000-0 0  9993
2 09855   4.7878 276.5577 0016499  28.8078 331.5149  1.00221183 19952
Epoch: 2024-12-24T17:27Z
Definitive object data (Epoch: 2024-12-24T17:27:27.029Z)
Latitude0.00001°
Longitude-78.81912°
Altitude35,738.963 km
Speed3.079 km/s
True Right ascension18h 27m 05s
True Declination0° 00' 00"
Sunlit
Object was in daylight at TLE epoch
Visualization TLE readout
Latitude-4.65517°
Longitude177.20092°
Altitude35,847.991 km
Speed3.071 km/s
Apparent Right ascension11h 44m 10s
Apparent Declination-11° 13' 53"
Sunlit
Object is in daylight
Visualization observer readout
Local Sidereal Time09:47:37
Azimuth145.663° SSE
Elevation32.149°
Doppler factor1
Orbital elements
Apogee altitude35,871.438 km
Perigee altitude35,732.253 km
Semi-major axis42,179.983 km
Eccentricity0.0016499
Inclination4.7878°
RAAN276.5577°
Arg. of periapsis28.8078°
True anomaly331.42457°
Mean anomaly331.5149°
Eccentric anomaly331.46975°
Mean motion0.25054 °/min
BSTARUnknown
Orbital period1436.87 mins
Loading historical data...
9855 neighbors
Authenticating...
Loading maneuver chart data...
Loading historical data...
Loading historical data...
Loading historical data...
Loading historical data...
Loading historical data...
Loading historical data...
Loading historical data...
Other satellites on launch #7 in the year 1977 (1977-02-06 UTC)

TITAN 3C TRANSTAGE R/B Visibility forecast

Observer location: undefined°, undefined

Span
Click to sort rows by Start time (UTC) header in descending order
Start Az.
Max El. time (UTC)
Max El. Az.
Max El.
End time (UTC)
End Az.
1440 mins2024-12-26 10:26:26.530Z145.673° SSE2024-12-26 23:15:26.530Z139.265° SSE33.362°2024-12-27 10:26:26.530Z145.895° SSE
|